Branson, MO

11:26 AM CDT on May 25, 2017 (GMT -0500)
Branson

Weather History for KBBG - March, 2013

Change the Weather History Date:

Saturday, March 9, 2013

  Actual Average (KHRO) Record (KHRO)
Temperature  
Mean Temperature 57 °F -  
Max Temperature 68 °F 58 °F 86 °F (1911)
Min Temperature 46 °F 35 °F 8 °F (1932)
Degree Days  
Heating Degree Days 8    
Growing Degree Days 7 (Base 50)    
Moisture  
Dew Point 44 °F    
Average Humidity 66    
Maximum Humidity 94    
Minimum Humidity 37    
Precipitation  
Precipitation 0.06 in - - ()
Sea Level Pressure  
Sea Level Pressure 29.90 in    
Wind  
Wind Speed 11 mph (SE)    
Max Wind Speed 21 mph    
Max Gust Speed 32 mph    
Visibility 9 miles    
Events Rain , Thunderstorm    
Averages and records for this station are not official NWS values.
T = Trace of Precipitation, MM = Missing Value Source: NWS Daily Summary

Daily Weather History Graph

Daily Weather History Graph

Search for Another Location

Airport or City:

Trip Planner

Search our weather history database for the weather conditions in past years. The results will help you decide how hot, cold, wet, or windy it might be!

Date:

Astronomy

Mar. 09, 2013 Rise Set
Actual Time 6:31 AM CST 6:15 PM CST
Civil Twilight 6:06 AM CST 6:40 PM CST
Nautical Twilight 5:36 AM CST 7:10 PM CST
Astronomical Twilight 5:06 AM CST 7:40 PM CST
Moon 4:53 AM CST (3/9) 4:19 PM CST (3/9)
Length of Visible Light 12h 34m
Length of Day
11h 43m
Waning Crescent, 5% of the Moon is Illuminated
Mar 9
Waning Crescent
Mar 11
New
Mar 19
First Quarter
Mar 27
Full
Apr 2
Last Quarter

Hourly Weather History & Observations

Time (CST) Temp. Windchill Dew Point Humidity Pressure Visibility Wind Dir Wind Speed Gust Speed Precip Events Conditions
12:15 AM 46.4 °F 41.1 °F 35.6 °F 66% 30.09 in 10.0 mi SE 11.5 mph - N/A   Overcast
12:35 AM 46.4 °F 41.9 °F 35.6 °F 66% 30.09 in 9.0 mi SE 9.2 mph - N/A Rain Light Rain
12:55 AM 46.4 °F 42.4 °F 35.6 °F 66% 30.09 in 10.0 mi SE 8.1 mph - N/A   Overcast
1:15 AM 46.4 °F 41.5 °F 35.6 °F 66% 30.09 in 10.0 mi SE 10.4 mph - N/A   Overcast
1:35 AM 46.4 °F 42.4 °F 35.6 °F 66% 30.08 in 10.0 mi SE 8.1 mph - N/A   Overcast
1:55 AM 46.4 °F 42.4 °F 35.6 °F 66% 30.07 in 10.0 mi SE 8.1 mph - N/A   Overcast
2:15 AM 46.4 °F 41.9 °F 35.6 °F 66% 30.07 in 10.0 mi SE 9.2 mph - N/A   Overcast
2:35 AM 46.4 °F 41.9 °F 35.6 °F 66% 30.06 in 10.0 mi SE 9.2 mph - N/A   Overcast
2:55 AM 46.4 °F 41.9 °F 35.6 °F 66% 30.04 in 10.0 mi SE 9.2 mph - N/A   Overcast
3:15 AM 46.4 °F 41.1 °F 35.6 °F 66% 30.03 in 10.0 mi SE 11.5 mph - N/A   Overcast
3:35 AM 46.4 °F 41.1 °F 35.6 °F 66% 30.02 in 10.0 mi ESE 11.5 mph - N/A   Overcast
3:55 AM 46.4 °F 41.9 °F 35.6 °F 66% 30.01 in 10.0 mi ESE 9.2 mph - N/A   Overcast
4:15 AM 46.4 °F 42.9 °F 35.6 °F 66% 30.02 in 10.0 mi ESE 6.9 mph - N/A   Overcast
4:35 AM 46.4 °F 42.4 °F 35.6 °F 66% 30.02 in 10.0 mi ESE 8.1 mph - N/A   Overcast
4:55 AM 46.4 °F 41.5 °F 35.6 °F 66% 30.02 in 10.0 mi ESE 10.4 mph - N/A   Overcast
5:15 AM 46.4 °F 42.9 °F 35.6 °F 66% 30.02 in 10.0 mi SE 6.9 mph - N/A   Overcast
6:50 AM 46.4 °F 42.4 °F 37.4 °F 71% 30.01 in 10.0 mi ESE 8.1 mph - N/A   Mostly Cloudy
7:50 AM 50.0 °F - 33.8 °F 54% 30.00 in 10.0 mi SE 11.5 mph 18.4 mph N/A   Scattered Clouds
8:55 AM 53.6 °F - 32.0 °F 44% 29.98 in 10.0 mi SE 17.3 mph - N/A   Scattered Clouds
9:50 AM 57.2 °F - 33.8 °F 41% 29.97 in 10.0 mi SE 12.7 mph 19.6 mph N/A   Scattered Clouds
10:45 AM 62.6 °F - 35.6 °F 37% 29.95 in 10.0 mi SE 13.8 mph 21.9 mph N/A   Partly Cloudy
11:45 AM 66.2 °F - 42.8 °F 43% 29.92 in 10.0 mi SSE 20.7 mph 32.2 mph N/A   Scattered Clouds
12:58 PM 68.0 °F - 42.8 °F 40% 29.88 in 10.0 mi SSE 17.3 mph 25.3 mph N/A   Mostly Cloudy
1:50 PM 66.2 °F - 44.6 °F 46% 29.83 in 10.0 mi SSE 19.6 mph 31.1 mph N/A   Mostly Cloudy
2:47 PM 66.2 °F - 46.4 °F 49% 29.83 in 10.0 mi South 17.3 mph 26.5 mph N/A   Overcast
3:45 PM 64.4 °F - 50.0 °F 59% 29.83 in 10.0 mi South 15.0 mph 23.0 mph N/A   Overcast
4:45 PM 62.6 °F - 50.0 °F 63% 29.81 in 5.0 mi South 11.5 mph 23.0 mph N/A Rain Light Rain
5:50 PM 62.6 °F - 50.0 °F 63% 29.78 in 10.0 mi SSE 13.8 mph 23.0 mph N/A   Mostly Cloudy
6:23 PM 62.6 °F - 50.0 °F 63% 29.77 in 10.0 mi SSE 12.7 mph 17.3 mph N/A Thunderstorm Thunderstorm
6:48 PM 62.6 °F - 50.0 °F 63% 29.76 in 10.0 mi SE 16.1 mph 23.0 mph N/A Thunderstorm Thunderstorm
7:53 PM 59.0 °F - 53.6 °F 82% 29.77 in 7.0 mi SSE 18.4 mph 26.5 mph N/A Rain Light Rain
7:55 PM 59.0 °F - 53.6 °F 82% 29.76 in 10.0 mi SSE 13.8 mph 20.7 mph 0.02 in   Overcast
8:15 PM 60.8 °F - 53.6 °F 77% 29.76 in 10.0 mi SSE 12.7 mph 24.2 mph N/A   Overcast
8:35 PM 62.6 °F - 51.8 °F 68% 29.76 in 10.0 mi SSE 12.7 mph 18.4 mph N/A Thunderstorm Overcast
8:48 PM 60.8 °F - 51.8 °F 72% 29.76 in 10.0 mi SSE 13.8 mph 23.0 mph N/A   Overcast
8:55 PM 60.8 °F - 51.8 °F 72% 29.76 in 10.0 mi SSE 16.1 mph 24.2 mph N/A Rain , Thunderstorm Light Rain
9:15 PM 62.6 °F - 53.6 °F 72% 29.76 in 10.0 mi SSE 13.8 mph 20.7 mph N/A   Overcast
9:35 PM 62.6 °F - 53.6 °F 72% 29.76 in 10.0 mi SSE 13.8 mph 25.3 mph N/A   Overcast
9:55 PM 60.8 °F - 51.8 °F 72% 29.75 in 10.0 mi SSE 11.5 mph 21.9 mph N/A   Overcast
10:15 PM 60.8 °F - 51.8 °F 72% 29.75 in 10.0 mi SSE 11.5 mph 25.3 mph N/A Thunderstorm Overcast
10:35 PM 60.8 °F - 51.8 °F 72% 29.75 in 7.0 mi SSE 17.3 mph 26.5 mph N/A   Overcast
10:55 PM 59.0 °F - 53.6 °F 82% 29.75 in 8.0 mi South 10.4 mph 24.2 mph N/A Rain , Thunderstorm Light Rain
11:15 PM 57.2 °F - 53.6 °F 88% 29.76 in 4.0 mi South 9.2 mph - N/A Rain Light Rain
11:35 PM 57.2 °F - 55.4 °F 94% 29.76 in 5.0 mi South 8.1 mph 16.1 mph 0.01 in Rain Light Rain
11:55 PM 57.2 °F - 55.4 °F 94% 29.78 in 2.0 mi SW 6.9 mph - 0.04 in Rain Light Rain